FW8630 Weather Reports


time (UTC)temp
C
wind
direction
speed
KPH
gust
KPH
rain 1hr
cm
rain 24hr
cm
rain mn
cm
humidity
%
barometer
mb
20240613030018 11 244 1.6 6.4 0.00 0.00 0.00 64 1014.4
20240613024514 11 220 1.6 9.7 0.00 0.00 0.00 66 1014.5
20240613023012 11 208 3.2 8.0 0.00 0.00 0.00 67 1014.4
20240613014543 11 198 1.6 8.0 0.00 0.00 0.00 66 1014.2
20240613013041 11 228 3.2 9.7 0.00 0.00 0.00 65 1013.9
20240613011549 12 273 3.2 11.3 0.00 0.00 0.00 65 1013.9
20240613010037 12 205 3.2 9.7 0.00 0.00 0.00 65 1013.7
20240613004542 12 215 3.2 11.3 0.00 0.00 0.00 61 1013.6
20240613003036 12 224 3.2 12.9 0.00 0.00 0.00 60 1013.5
20240612233025 12 250 3.2 9.7 0.00 0.00 0.00 62 1013.3
20240612231525 12 171 3.2 11.3 0.00 0.00 0.00 62 1013.4
20240612230027 12 222 3.2 14.5 0.00 0.00 0.00 62 1013.3
20240612224521 12 231 6.4 19.3 0.00 0.00 0.00 63 1013.2
20240612223019 12 245 6.4 24.1 0.00 0.00 0.00 63 1013.2
20240612221516 12 218 6.4 19.3 0.00 0.00 0.00 63 1013.1
20240612220014 12 221 4.8 14.5 0.00 0.00 0.00 64 1013.0
20240612214512 12 202 4.8 17.7 0.00 0.00 0.00 64 1012.9
20240612213010 12 238 6.4 17.7 0.00 0.00 0.00 65 1012.8
20240612211510 12 232 8.0 30.6 0.00 0.00 0.00 65 1012.7
20240612210009 12 201 8.0 19.3 0.00 0.00 0.00 65 1012.7
20240612204515 12 186 8.0 25.7 0.00 0.00 0.00 65 1012.5
20240612203007 12 175 8.0 25.7 0.00 0.00 0.00 65 1012.4
20240612201607 12 207 8.0 19.3 0.00 0.00 0.00 66 1012.3
20240612200005 12 252 8.0 27.4 0.00 0.00 0.00 66 1012.1
20240612194507 12 194 8.0 29.0 0.00 0.00 0.00 66 1012.1
20240612193008 12 183 6.4 22.5 0.00 0.00 0.00 66 1012.1
20240612191504 12 215 8.0 30.6 0.00 0.00 0.00 66 1012.1
20240612190003 12 221 9.7 29.0 0.00 0.00 0.00 67 1012.0
20240612184502 12 161 9.7 32.2 0.00 0.00 0.00 66 1011.9
20240612183001 12 178 9.7 22.5 0.00 0.00 0.00 65 1011.8
20240612181608 12 202 8.0 25.7 0.00 0.00 0.00 65 1011.7
20240612180115 12 217 11.3 24.1 0.00 0.00 0.00 63 1011.8
20240612174600 13 196 8.0 22.5 0.00 0.00 0.00 63 1011.7
20240612173058 13 190 8.0 25.7 0.00 0.00 0.00 62 1011.8
20240612171559 13 173 6.4 29.0 0.00 0.00 0.00 61 1011.8
20240612170057 13 182 8.0 29.0 0.00 0.00 0.00 61 1011.9
20240612164617 13 212 16.1 35.4 0.00 0.00 0.00 59 1012.0
20240612163112 13 177 9.7 30.6 0.00 0.00 0.00 59 1012.1
20240612161555 13 182 8.0 38.6 0.00 0.00 0.00 59 1012.1
20240612160057 14 194 9.7 32.2 0.00 0.00 0.00 57 1012.0
20240612154554 13 218 8.0 20.9 0.00 0.00 0.00 58 1012.1
20240612153053 14 172 9.7 27.4 0.00 0.00 0.00 58 1012.2
20240612151553 14 228 11.3 27.4 0.00 0.00 0.00 58 1012.2
20240612150059 14 215 9.7 30.6 0.00 0.00 0.00 58 1012.2
20240612144555 14 198 9.7 30.6 0.00 0.00 0.00 56 1012.3
20240612143051 14 207 11.3 30.6 0.00 0.00 0.00 58 1012.3
20240612141550 14 198 11.3 22.5 0.00 0.00 0.00 57 1012.4
20240612140049 14 186 9.7 33.8 0.00 0.00 0.00 59 1012.4
20240612134552 14 242 9.7 27.4 0.00 0.00 0.00 58 1012.5
20240612133048 15 214 8.0 24.1 0.00 0.00 0.00 59 1012.5
20240612133019 15 200 6.4 24.1 0.00 0.00 0.00 59 1012.5
20240612131552 14 212 12.9 27.4 0.00 0.00 0.00 58 1012.4
20240612130046 14 205 8.0 32.2 0.00 0.00 0.00 58 1012.3
20240612124545 15 222 11.3 25.7 0.00 0.00 0.00 57 1012.2
20240612123044 15 212 9.7 22.5 0.00 0.00 0.00 57 1012.3
20240612121549 14 215 8.0 24.1 0.00 0.00 0.00 58 1012.2
20240612120043 14 211 8.0 29.0 0.00 0.00 0.00 58 1012.3
20240612114555 14 198 9.7 25.7 0.00 0.00 0.00 58 1012.1
20240612113045 14 197 12.9 33.8 0.00 0.00 0.00 58 1012.0
20240612111539 15 211 9.7 20.9 0.00 0.00 0.00 57 1012.0
20240612110039 15 205 8.0 27.4 0.00 0.00 0.00 58 1011.9
20240612104601 15 188 3.2 24.1 0.00 0.00 0.00 59 1012.0
20240612103136 15 205 3.2 19.3 0.00 0.00 0.00 60 1011.9
20240612101541 15 207 6.4 27.4 0.00 0.00 0.00 60 1011.9
20240612100037 15 190 4.8 16.1 0.00 0.00 0.00 61 1011.9
20240612094532 15 250 3.2 16.1 0.00 0.00 0.00 61 1011.8
20240612093031 15 276 3.2 16.1 0.00 0.00 0.00 62 1011.8
20240612091532 15 248 3.2 12.9 0.00 0.00 0.00 61 1011.7
20240612090050 15 184 1.6 8.0 0.00 0.00 0.00 58 1011.6
20240612084526 15 241 1.6 12.9 0.00 0.00 0.00 59 1011.4
20240612083023 15 236 1.6 6.4 0.00 0.00 0.00 60 1011.3
20240612081524 13 262 6.4 14.5 0.00 0.00 0.00 63 1011.2
20240612080020 14 273 3.2 12.9 0.00 0.00 0.00 61 1011.1
20240612074518 15 186 1.6 6.4 0.00 0.00 0.00 61 1011.1
20240612073017 15 185 1.6 8.0 0.00 0.00 0.00 61 1010.8
20240612071516 15 250 3.2 11.3 0.00 0.00 0.00 60 1011.1
20240612070013 14 257 1.6 9.7 0.00 0.00 0.00 60 1010.7
20240612064509 13 225 1.6 16.1 0.00 0.00 0.00 60 1010.7
20240612063015 13 239 1.6 12.9 0.00 0.00 0.00 62 1010.6
20240612061508 13 259 4.8 12.9 0.00 0.00 0.00 60 1010.5
20240612060100 13 221 0.0 11.3 0.00 0.00 0.00 61 1010.3
20240612054558 13 273 1.6 9.7 0.00 0.00 0.00 59 1010.0
20240612053055 13 264 3.2 11.3 0.00 0.00 0.00 60 1010.0
20240612051600 13 267 6.4 12.9 0.00 0.00 0.00 59 1009.9
20240612050052 13 261 0.0 14.5 0.00 0.00 0.00 59 1009.7
20240612044549 12 249 1.6 11.3 0.00 0.00 0.00 59 1009.7
20240612043057 12 258 3.2 16.1 0.00 0.00 0.00 59 1009.4
20240612041549 12 255 3.2 11.3 0.00 0.00 0.00 59 1009.2
20240612040045 12 236 1.6 6.4 0.00 0.00 0.00 59 1009.2
20240612034541 12 301 0.0 6.4 0.00 0.00 0.00 59 1009.0
20240612033039 12 223 0.0 4.8 0.00 0.00 0.00 59 1008.9
20240612031538 12 243 1.6 4.8 0.00 0.00 0.00 59 1008.9